| time (UTC) | temp C | wind direction | speed KPH | gust KPH | rain 1hr cm | rain 24hr cm | rain mn cm | humidity % | barometer mb |
| 20260902081516 | 21 | 200 | 0.0 | 0.0 | 0.00 | 0.00 | 0.00 | 94 | 1015.5 |
| 20260902080018 | 21 | 200 | 0.0 | 0.0 | 0.00 | 0.00 | 0.00 | 94 | 1015.5 |
| 20260902074517 | 21 | 200 | 0.0 | 0.0 | 0.00 | 0.00 | 0.00 | 94 | 1015.7 |
| 20260902073014 | 21 | 200 | 0.0 | 0.0 | 0.00 | 0.00 | 0.00 | 94 | 1015.6 |
| 20260902071510 | 21 | 200 | 0.0 | 0.0 | 0.00 | 0.00 | 0.00 | 94 | 1015.7 |
| 20260902070017 | 21 | 200 | 0.0 | 0.0 | 0.00 | 0.00 | 0.00 | 94 | 1015.8 |
| 20260902064534 | 21 | 200 | 0.0 | 0.0 | 0.00 | 0.00 | 0.00 | 94 | 1015.9 |
| 20260902063017 | 21 | 200 | 0.0 | 1.6 | 0.00 | 0.00 | 0.00 | 94 | 1015.7 |
| 20260902061518 | 21 | 306 | 0.0 | 0.0 | 0.00 | 0.00 | 0.00 | 94 | 1015.9 |
| 20260902060017 | 21 | 306 | 0.0 | 0.0 | 0.00 | 0.00 | 0.00 | 94 | 1015.9 |
| 20260902054517 | 21 | 306 | 0.0 | 0.0 | 0.00 | 0.00 | 0.00 | 94 | 1016.1 |
| 20260902053019 | 21 | 306 | 0.0 | 0.0 | 0.00 | 0.00 | 0.00 | 94 | 1016.0 |
| 20260902051519 | 21 | 306 | 0.0 | 0.0 | 0.00 | 0.00 | 0.00 | 94 | 1015.9 |
| 20260902050031 | 21 | 306 | 0.0 | 0.0 | 0.00 | 0.00 | 0.00 | 93 | 1015.9 |
| 20260902044520 | 21 | 306 | 0.0 | 0.0 | 0.00 | 0.00 | 0.00 | 93 | 1015.8 |
| 20260902043018 | 21 | 306 | 0.0 | 0.0 | 0.00 | 0.00 | 0.00 | 93 | 1015.9 |
| 20260902041539 | 21 | 306 | 0.0 | 0.0 | 0.00 | 0.00 | 0.00 | 92 | 1015.8 |
| 20260902040018 | 22 | 306 | 0.0 | 0.0 | 0.00 | 0.00 | 0.00 | 92 | 1015.7 |
| 20260902034518 | 22 | 306 | 0.0 | 0.0 | 0.00 | 0.03 | 0.00 | 92 | 1015.5 |
| 20260902033020 | 22 | 306 | 0.0 | 0.0 | 0.00 | 0.03 | 0.00 | 92 | 1015.4 |
| 20260902031521 | 22 | 306 | 0.0 | 0.0 | 0.00 | 0.03 | 0.00 | 93 | 1015.5 |
| 20260902030020 | 22 | 306 | 0.0 | 0.0 | 0.00 | 0.03 | 0.00 | 93 | 1015.5 |
| 20260902024524 | 22 | 306 | 0.0 | 0.0 | 0.00 | 0.03 | 0.00 | 92 | 1015.5 |
| 20260902023022 | 22 | 306 | 0.0 | 0.0 | 0.00 | 0.03 | 0.00 | 92 | 1015.7 |
| 20260902021516 | 22 | 306 | 0.0 | 0.0 | 0.00 | 0.03 | 0.00 | 91 | 1015.7 |
| 20260902020040 | 22 | 306 | 0.0 | 0.0 | 0.00 | 0.03 | 0.00 | 91 | 1015.7 |
| 20260902014512 | 22 | 306 | 0.0 | 0.0 | 0.00 | 0.03 | 0.00 | 91 | 1015.7 |
| 20260902013020 | 23 | 306 | 0.0 | 0.0 | 0.00 | 0.03 | 0.00 | 90 | 1015.8 |
| 20260902011519 | 23 | 306 | 0.0 | 0.0 | 0.00 | 0.03 | 0.00 | 90 | 1015.8 |
| 20260902010031 | 23 | 306 | 0.0 | 0.0 | 0.00 | 0.03 | 0.00 | 89 | 1015.4 |
| 20260902004524 | 23 | 306 | 0.0 | 0.0 | 0.00 | 0.03 | 0.00 | 89 | 1015.2 |
| 20260902003025 | 23 | 306 | 0.0 | 3.2 | 0.00 | 0.03 | 0.00 | 89 | 1015.1 |
| 20260902001518 | 23 | 306 | 0.0 | 3.2 | 0.00 | 0.03 | 0.00 | 88 | 1014.9 |
| 20260902000024 | 24 | 245 | 0.0 | 3.2 | 0.00 | 0.03 | 0.00 | 87 | 1014.7 |
| 20260901234523 | 24 | 245 | 0.0 | 3.2 | 0.00 | 0.03 | 0.00 | 86 | 1014.7 |
| 20260901233023 | 25 | 246 | 0.0 | 4.8 | 0.00 | 0.03 | 0.00 | 85 | 1014.7 |
| 20260901231523 | 25 | 329 | 0.0 | 3.2 | 0.00 | 0.03 | 0.00 | 83 | 1014.9 |
| 20260901230031 | 25 | 333 | 0.0 | 6.4 | 0.00 | 0.03 | 0.00 | 81 | 1015.1 |
| 20260901224523 | 26 | 360 | 1.6 | 6.4 | 0.00 | 0.03 | 0.00 | 80 | 1014.9 |
| 20260901223019 | 26 | 327 | 1.6 | 8.0 | 0.00 | 0.03 | 0.00 | 79 | 1015.0 |
| 20260901221523 | 26 | 268 | 1.6 | 8.0 | 0.00 | 0.03 | 0.00 | 78 | 1015.1 |
| 20260901220040 | 26 | 310 | 3.2 | 12.9 | 0.00 | 0.03 | 0.00 | 78 | 1015.2 |
| 20260901214519 | 26 | 249 | 3.2 | 9.7 | 0.00 | 0.03 | 0.00 | 78 | 1015.1 |
| 20260901213024 | 26 | 5 | 1.6 | 17.7 | 0.00 | 0.03 | 0.00 | 78 | 1015.0 |
| 20260901211523 | 27 | 242 | 3.2 | 8.0 | 0.00 | 0.03 | 0.00 | 78 | 1015.1 |
| 20260901210028 | 27 | 287 | 3.2 | 8.0 | 0.00 | 0.03 | 0.00 | 78 | 1015.1 |
| 20260901204518 | 27 | 334 | 6.4 | 16.1 | 0.00 | 0.03 | 0.00 | 76 | 1015.3 |
| 20260901203041 | 27 | 216 | 3.2 | 19.3 | 0.00 | 0.03 | 0.00 | 76 | 1015.4 |
| 20260901201525 | 27 | 238 | 1.6 | 16.1 | 0.00 | 0.03 | 0.00 | 78 | 1015.4 |
| 20260901200024 | 27 | 343 | 3.2 | 9.7 | 0.00 | 0.05 | 0.00 | 79 | 1015.3 |
| 20260901194523 | 27 | 244 | 1.6 | 9.7 | 0.00 | 0.05 | 0.00 | 79 | 1015.3 |
| 20260901193023 | 27 | 252 | 3.2 | 12.9 | 0.00 | 0.10 | 0.00 | 78 | 1015.1 |
| 20260901191526 | 27 | 265 | 3.2 | 14.5 | 0.00 | 0.15 | 0.00 | 79 | 1015.1 |
| 20260901190039 | 27 | 273 | 4.8 | 16.1 | 0.00 | 0.15 | 0.00 | 78 | 1015.5 |
| 20260901184516 | 27 | 235 | 6.4 | 14.5 | 0.00 | 0.15 | 0.00 | 74 | 1015.5 |
| 20260901183029 | 27 | 329 | 6.4 | 14.5 | 0.00 | 0.23 | 0.00 | 75 | 1015.6 |
| 20260901181524 | 27 | 246 | 3.2 | 12.9 | 0.00 | 0.30 | 0.00 | 77 | 1015.5 |
| 20260901180025 | 27 | 237 | 3.2 | 14.5 | 0.00 | 0.30 | 0.00 | 75 | 1015.4 |
| 20260901174532 | 27 | 350 | 4.8 | 16.1 | 0.00 | 0.30 | 0.00 | 75 | 1015.2 |
| 20260901173024 | 27 | 296 | 4.8 | 16.1 | 0.00 | 0.30 | 0.00 | 76 | 1015.0 |
| 20260901171525 | 27 | 318 | 6.4 | 14.5 | 0.00 | 0.30 | 0.00 | 76 | 1014.9 |
| 20260901170027 | 27 | 306 | 4.8 | 16.1 | 0.00 | 0.30 | 0.00 | 78 | 1014.8 |
| 20260901164515 | 27 | 346 | 4.8 | 12.9 | 0.00 | 0.30 | 0.00 | 79 | 1014.8 |
| 20260901163017 | 27 | 315 | 6.4 | 14.5 | 0.00 | 0.30 | 0.00 | 80 | 1014.9 |
| 20260901161527 | 26 | 322 | 3.2 | 12.9 | 0.00 | 0.30 | 0.00 | 79 | 1014.9 |
| 20260901160025 | 26 | 300 | 3.2 | 12.9 | 0.00 | 0.30 | 0.00 | 80 | 1014.8 |
| 20260901154528 | 26 | 319 | 4.8 | 12.9 | 0.00 | 0.30 | 0.00 | 82 | 1014.7 |
| 20260901153031 | 26 | 286 | 6.4 | 14.5 | 0.00 | 0.30 | 0.00 | 81 | 1014.8 |
| 20260901151519 | 25 | 336 | 3.2 | 14.5 | 0.00 | 0.30 | 0.00 | 83 | 1014.7 |
| 20260901150030 | 25 | 291 | 4.8 | 9.7 | 0.00 | 0.36 | 0.00 | 83 | 1014.7 |
| 20260901144514 | 25 | 332 | 1.6 | 9.7 | 0.00 | 0.43 | 0.00 | 85 | 1014.5 |
| 20260901143028 | 25 | 311 | 3.2 | 16.1 | 0.00 | 0.56 | 0.00 | 85 | 1014.5 |
| 20260901141524 | 25 | 322 | 3.2 | 12.9 | 0.00 | 0.79 | 0.00 | 86 | 1014.6 |
| 20260901140027 | 25 | 332 | 6.4 | 16.1 | 0.00 | 0.97 | 0.00 | 87 | 1014.8 |
| 20260901134525 | 24 | 268 | 1.6 | 14.5 | 0.00 | 1.07 | 0.00 | 89 | 1014.8 |
| 20260901133031 | 24 | 19 | 3.2 | 12.9 | 0.00 | 1.19 | 0.00 | 88 | 1014.8 |
| 20260901131521 | 23 | 314 | 3.2 | 9.7 | 0.00 | 1.27 | 0.00 | 90 | 1014.9 |
| 20260901130012 | 23 | 347 | 3.2 | 14.5 | 0.00 | 1.32 | 0.00 | 90 | 1015.0 |
| 20260901124529 | 23 | 243 | 0.0 | 12.9 | 0.00 | 1.37 | 0.00 | 90 | 1015.1 |
| 20260901123028 | 23 | 291 | 1.6 | 8.0 | 0.00 | 1.37 | 0.00 | 90 | 1015.0 |
| 20260901121526 | 23 | 311 | 3.2 | 6.4 | 0.00 | 1.37 | 0.00 | 90 | 1014.7 |
| 20260901120027 | 23 | 248 | 0.0 | 11.3 | 0.00 | 1.40 | 0.00 | 90 | 1014.7 |
| 20260901114526 | 23 | 284 | 3.2 | 11.3 | 0.00 | 1.42 | 0.00 | 89 | 1014.6 |
| 20260901113018 | 23 | 24 | 1.6 | 8.0 | 0.00 | 1.42 | 0.00 | 89 | 1014.5 |
| 20260901111516 | 23 | 330 | 4.8 | 9.7 | 0.00 | 1.42 | 0.00 | 88 | 1014.4 |
| 20260901110027 | 23 | 219 | 1.6 | 4.8 | 0.00 | 1.42 | 0.00 | 87 | 1014.4 |
| 20260901104541 | 23 | 302 | 1.6 | 8.0 | 0.00 | 1.42 | 0.00 | 86 | 1014.2 |
| 20260901103026 | 23 | 311 | 4.8 | 9.7 | 0.00 | 1.42 | 0.00 | 85 | 1014.1 |
| 20260901101531 | 22 | 323 | 1.6 | 8.0 | 0.00 | 1.42 | 0.00 | 88 | 1013.8 |
| 20260901100024 | 21 | 299 | 0.0 | 0.0 | 0.00 | 1.42 | 0.00 | 91 | 1013.6 |
| 20260901094522 | 21 | 299 | 0.0 | 0.0 | 0.00 | 1.42 | 0.00 | 92 | 1013.5 |
| 20260901093017 | 21 | 299 | 0.0 | 0.0 | 0.00 | 1.42 | 0.00 | 92 | 1013.6 |
| 20260901091527 | 21 | 299 | 0.0 | 0.0 | 0.00 | 1.42 | 0.00 | 91 | 1013.5 |
| 20260901090031 | 21 | 299 | 0.0 | 0.0 | 0.00 | 1.42 | 0.00 | 91 | 1013.5 |
| 20260901084527 | 22 | 299 | 0.0 | 3.2 | 0.00 | 1.42 | 0.00 | 91 | 1013.5 |
| 20260901083030 | 22 | 299 | 0.0 | 3.2 | 0.00 | 1.42 | 0.00 | 91 | 1013.5 |